Weather History for KABI - November, 2011

Change the Weather History Date:

Saturday, November 26, 2011

  Actual Average Record
Temperature  
Mean Temperature 52 °F 50 °F  
Max Temperature 61 °F 62 °F 86 °F (1965)
Min Temperature 43 °F 39 °F 16 °F (1993)
Degree Days  
Heating Degree Days 13 15  
Month to date heating degree days 228 266  
Since 1 July heating degree days 304 370  
Cooling Degree Days 0 0  
Month to date cooling degree days 30 15  
Year to date cooling degree days 3517 2404  
Growing Degree Days 3 (Base 50)    
Moisture  
Dew Point 38 °F    
Average Humidity 64    
Maximum Humidity 93    
Minimum Humidity 34    
Precipitation  
Precipitation T in 0.04 in 2.14 in (1888)
Month to date precipitation 0.18 1.26  
Year to date precipitation 14.90 23.44  
Sea Level Pressure  
Sea Level Pressure 30.08 in    
Wind  
Wind Speed 22 mph (NW)    
Max Wind Speed 40 mph    
Max Gust Speed 48 mph    
Visibility 10 miles    
Events Rain    
T = Trace of Precipitation, MM = Missing Value Source: NWS Daily Summary

Daily Weather History Graph

Daily Weather History Graph

Search for Another Location

Airport or City:

Trip Planner

Search our weather history database for the weather conditions in past years. The results will help you decide how hot, cold, wet, or windy it might be!

Date:

Astronomy

Nov. 26, 2011 Rise Set
Actual Time 7:17 AM CST 5:33 PM CST
Civil Twilight 6:51 AM CST 6:00 PM CST
Nautical Twilight 6:21 AM CST 6:30 PM CST
Astronomical Twilight 5:51 AM CST 7:00 PM CST
Moon 8:47 AM CST (11/26) 7:09 PM CST (11/26)
Length of Visible Light 11h 09m
Length of Day
10h 16m
Waxing Crescent, 3% of the Moon is Illuminated
Nov 26
Waxing Crescent
Dec 2
First Quarter
Dec 10
Full
Dec 17
Last Quarter
Dec 24
New

Hourly Weather History & Observations

Time (CST) Temp. Windchill Dew Point Humidity Pressure Visibility Wind Dir Wind Speed Gust Speed Precip Events Conditions
12:52 AM 60.1 °F - 57.0 °F 90% 29.78 in 10.0 mi SSW 12.7 mph - N/A   Clear
1:52 AM 57.9 °F - 55.9 °F 93% 29.78 in 10.0 mi SSW 10.4 mph - N/A   Clear
2:52 AM 55.9 °F - 50.0 °F 80% 29.78 in 10.0 mi SW 10.4 mph - N/A   Clear
3:52 AM 54.0 °F - 46.0 °F 75% 29.79 in 10.0 mi WSW 11.5 mph - N/A   Clear
4:52 AM 53.1 °F - 44.1 °F 71% 29.82 in 10.0 mi West 17.3 mph 27.6 mph N/A   Clear
5:52 AM 51.1 °F - 44.1 °F 77% 29.86 in 10.0 mi WNW 12.7 mph - N/A   Scattered Clouds
6:01 AM 51.8 °F - 44.6 °F 76% 29.91 in 10.0 mi WNW 17.3 mph 21.9 mph N/A   Mostly Cloudy
6:52 AM 53.1 °F - 46.0 °F 77% 29.91 in 10.0 mi NW 24.2 mph 31.1 mph N/A   Overcast
6:58 AM 53.6 °F - 46.4 °F 77% 29.96 in 10.0 mi NW 21.9 mph 38.0 mph N/A   Overcast
7:29 AM 53.6 °F - 44.6 °F 72% 30.00 in 10.0 mi NNW 26.5 mph 35.7 mph N/A   Overcast
7:52 AM 53.1 °F - 43.0 °F 69% 30.00 in 10.0 mi NNW 19.6 mph 31.1 mph N/A   Mostly Cloudy
8:52 AM 54.0 °F - 41.0 °F 62% 30.03 in 10.0 mi NNW 25.3 mph 29.9 mph N/A   Partly Cloudy
9:52 AM 55.9 °F - 39.9 °F 55% 30.08 in 10.0 mi North 26.5 mph 42.6 mph N/A   Partly Cloudy
10:52 AM 53.1 °F - 37.9 °F 57% 30.13 in 10.0 mi North 29.9 mph 38.0 mph N/A   Overcast
11:52 AM 50.0 °F - 37.0 °F 61% 30.16 in 10.0 mi NNW 36.8 mph 44.9 mph N/A   Overcast
12:52 PM 50.0 °F - 35.1 °F 57% 30.16 in 10.0 mi North 31.1 mph 42.6 mph N/A   Overcast
1:52 PM 51.1 °F - 34.0 °F 52% 30.16 in 10.0 mi NNW 27.6 mph 38.0 mph N/A   Overcast
2:52 PM 48.9 °F - 34.0 °F 56% 30.19 in 10.0 mi NNW 26.5 mph 33.4 mph N/A   Overcast
3:52 PM 48.9 °F - 33.1 °F 54% 30.21 in 10.0 mi North 20.7 mph - N/A   Overcast
4:52 PM 50.0 °F - 30.0 °F 46% 30.22 in 10.0 mi North 20.7 mph 28.8 mph N/A   Overcast
5:52 PM 50.0 °F - 28.0 °F 43% 30.25 in 10.0 mi NNW 23.0 mph 29.9 mph N/A   Overcast
6:52 PM 48.0 °F - 30.0 °F 50% 30.28 in 10.0 mi NNW 29.9 mph 35.7 mph 0.00 in   Overcast
7:52 PM 46.9 °F - 30.9 °F 54% 30.32 in 10.0 mi NNW 27.6 mph 41.4 mph 0.00 in Rain Light Rain
8:52 PM 48.9 °F - 27.0 °F 43% 30.32 in 10.0 mi NNW 21.9 mph 38.0 mph 0.00 in   Overcast
9:52 PM 48.0 °F - 23.0 °F 37% 30.35 in 10.0 mi North 25.3 mph 33.4 mph N/A   Overcast
10:52 PM 46.0 °F 38.0 °F 19.9 °F 35% 30.37 in 10.0 mi North 21.9 mph - N/A   Scattered Clouds
11:52 PM 44.1 °F 36.5 °F 21.9 °F 42% 30.40 in 10.0 mi NNW 17.3 mph - N/A   Clear